RH
41 30 36 38 27 22 22 21 22 26 32 39 36 43 44 32 26 23 18 22 25 28 26 28 24 18 13 10 8 5 4 3 4 3 5 5 5 5 5 6 7 9 10 11 12 13 15
45 41 44 29 38 24 24 24 24 25 30 34 35 38 40 28 27 23 20 23 29 33 34 32 24 19 16 12 9 5 4 4 3 3 3 3 5 6 6 6 6 7 8 10 11 13 14
45 67 41 44 29 30 29 25 25 25 28 29 33 35 38 27 26 23 22 24 30 34 35 33 26 20 18 14 11 7 5 4 4 4 3 3 3 4 6 6 6 7 7 7 9 11 13
45 50 40 37 39 32 33 26 26 26 29 30 34 35 32 28 27 26 25 26 30 33 33 32 26 21 19 16 15 13 6 5 5 4 4 4 3 3 3 4 6 6 6 6 7 9 12
50 58 47 54 40 37 35 31 28 27 27 30 33 36 32 28 30 30 31 32 31 34 34 30 30 23 23 18 18 18 12 7 6 5 5 5 4 4 3 4 5 6 6 7 7 8 10
63 58 58 58 58 52 38 36 29 31 29 31 32 35 33 32 32 35 37 35 33 33 35 31 33 29 21 23 21 17 18 11 6 6 5 4 5 4 4 4 4 5 6 7 7 7 9
78 64 50 63 58 55 66 44 39 32 32 31 32 35 37 36 36 36 39 40 38 34 33 34 35 31 27 27 26 20 19 19 10 7 6 4 5 4 6 5 4 4 6 7 8 7 8
90 79 61 49 50 56 76 74 50 37 38 35 34 36 39 42 44 41 41 40 42 41 37 36 32 38 32 31 30 28 18 20 21 11 8 5 5 6 6 7 6 4 4 5 7 8 9
93 90 72 55 48 47 54 87 82 57 42 45 43 36 42 42 46 44 42 46 50 49 45 38 38 38 37 36 36 32 25 19 24 20 12 10 7 8 9 10 7 6 5 5 6 7 8
100 96 91 88 60 56 71 100 100 99 88 66 52 51 41 47 52 53 48 50 48 51 48 42 40 34 45 41 39 34 33 24 20 27 23 14 11 10 10 9 11 8 6 5 6 7 9
100 100 100 88 88 66 86 100 100 100 98 91 81 60 58 50 57 69 58 54 50 50 55 53 45 42 38 51 44 36 37 34 24 20 27 25 20 15 13 11 10 6 8 7 7 6 7
96 100 100 100 83 92 80 93 100 100 100 99 92 81 78 75 76 87 68 73 59 58 70 61 51 47 45 43 53 45 41 38 33 24 22 28 27 23 18 13 12 11 9 6 7 7 8
100 100 100 100 92 86 74 67 64 97 100 100 100 99 98 95 98 99 87 79 74 64 67 64 52 54 47 49 47 46 51 41 39 33 23 24 29 32 34 25 16 14 10 8 6 6 8
100 100 100 100 100 100 81 74 74 74 88 100 100 100 100 100 100 100 86 80 79 71 69 60 68 70 62 59 52 46 44 55 48 36 29 24 24 28 36 35 30 20 14 9 7 5 6
100 100 100 100 100 100 100 100 86 66 67 85 99 100 100 100 100 100 100 90 88 79 81 75 70 65 77 67 68 50 45 52 56 51 37 33 27 26 26 32 34 31 25 16 10 7 6
100 100 100 100 100 100 100 100 96 74 53 65 78 88 100 83 97 100 100 100 100 94 86 87 86 79 72 79 75 64 56 49 52 57 49 41 39 35 29 28 30 39 36 33 20 12 10
100 100 100 100 100 100 100 100 100 95 72 67 87 98 90 100 92 84 100 100 100 98 89 83 96 88 82 76 85 89 72 61 53 53 58 50 51 48 43 35 27 34 40 41 35 30 23
100 100 100 100 100 100 100 100 100 96 92 70 75 98 100 100 100 96 91 100 100 100 98 76 94 93 92 76 77 95 93 81 65 54 54 57 58 59 55 48 49 34 37 34 44 48 38
100 100 100 100 96 99 100 100 100 100 90 91 76 100 100 100 100 95 100 90 97 100 100 96 91 90 94 92 76 78 98 88 82 66 56 62 62 54 57 47 45 39 37 40 38 45 54
73 90 100 100 100 100 100 100 100 99 100 99 99 84 100 100 100 100 100 100 88 100 100 100 99 93 89 95 91 74 88 97 96 81 74 62 63 62 49 46 42 45 38 42 43 39 54
85 82 94 89 100 100 100 98 100 100 97 98 86 100 100 100 100 100 100 100 98 82 100 100 100 94 88 77 90 78 76 89 97 96 84 81 75 58 56 46 38 38 43 51 45 40 46
45 79 100 86 88 99 100 100 94 100 100 89 95 82 100 96 100 100 100 100 100 100 89 100 100 100 98 100 100 84 81 65 90 92 100 97 90 86 60 58 49 50 45 47 54 51 40
55 47 56 77 100 95 83 95 99 100 92 76 86 80 96 93 91 100 100 100 100 99 95 89 100 100 93 100 100 99 100 94 68 87 89 100 100 88 87 76 64 66 69 72 69 70 61
70 58 47 52 67 72 92 98 86 92 99 100 95 88 73 75 90 100 99 100 100 100 100 92 92 100 100 99 100 100 100 100 98 72 87 90 100 100 95 95 83 62 60 69 79 87 82
46 65 65 51 44 52 50 69 82 100 90 84 94 97 90 73 82 96 100 99 100 100 100 98 99 100 100 100 100 100 99 100 100 99 98 87 82 99 100 100 98 79 66 68 84 88 94
32 37 57 60 54 51 57 55 58 57 59 84 100 81 72 92 86 84 99 100 100 100 100 100 100 95 100 100 100 100 100 100 100 100 100 90 93 92 88 84 84 75 61 64 72 70 88
28 31 36 50 54 59 58 57 60 57 47 40 38 44 68 64 95 100 93 100 93 100 84 100 100 100 100 100 100 100 100 100 100 100 100 100 100 100 92 94 85 66 71 70 81 81 90
25 29 29 40 51 66 67 54 52 50 47 42 44 41 32 44 64 91 100 100 99 100 100 100 100 100 100 100 100 100 100 100 95 100 100 100 100 100 100 100 96 84 86 80 87 91 75
21 23 25 27 40 51 74 61 57 51 44 42 43 56 45 30 29 63 84 100 98 100 100 96 100 99 100 100 100 100 100 100 100 95 100 100 100 100 100 98 100 100 91 80 84 88 99
Wind_Speed
14 16 16 18 19 17 17 17 17 15 16 18 24 30 33 30 30 33 33 37 43 48 52 60 66 73 78 78 71 61 48 39 30 28 32 39 48 54 61 69 78 84 88 88 90 91 90
15 17 18 17 18 17 17 18 18 19 18 20 26 31 33 29 30 33 34 38 44 49 55 62 68 74 82 82 76 68 53 44 33 25 22 25 33 41 49 57 65 74 82 88 90 93 92
15 18 20 20 19 18 19 18 19 20 22 24 26 30 31 29 30 32 35 39 44 50 56 63 69 75 82 85 83 75 59 49 39 29 25 20 23 30 37 44 53 62 71 78 87 91 93
19 18 25 21 21 21 20 20 18 20 23 25 27 28 29 28 30 33 36 40 44 49 56 63 69 76 82 88 86 82 68 56 45 35 28 18 18 20 27 36 43 49 58 66 78 89 93
22 22 22 23 23 23 21 21 21 20 23 26 27 27 28 28 31 34 38 41 44 48 54 62 67 73 78 84 90 89 78 64 53 42 32 22 17 15 18 24 32 39 46 56 65 79 88
26 26 25 22 26 28 26 24 23 23 22 23 25 25 27 29 32 36 39 41 44 47 52 59 64 70 77 83 88 92 87 74 61 51 37 26 19 16 13 13 20 29 38 48 58 67 79
31 29 28 25 25 30 29 28 26 25 26 25 25 26 28 29 32 36 38 39 43 46 50 56 62 67 73 80 85 90 93 85 71 59 46 32 25 21 16 10 12 20 29 39 47 58 68
34 31 30 30 30 28 33 32 30 28 27 29 30 30 31 30 32 34 36 37 41 46 49 54 60 64 70 76 81 84 89 93 83 69 56 43 33 28 20 15 8 14 22 31 42 49 56
39 35 34 35 31 30 34 33 34 33 32 32 31 30 30 33 31 34 35 38 39 43 47 50 56 62 67 71 76 80 83 89 88 78 66 55 43 33 28 19 13 6 14 23 32 39 48
42 38 39 36 34 33 35 34 33 35 37 35 33 33 34 33 32 33 35 37 38 42 45 48 51 57 61 67 70 74 77 80 86 83 76 67 55 46 36 29 21 13 5 12 22 30 38
46 44 43 40 36 34 35 32 35 34 36 39 38 35 35 33 32 33 34 35 36 39 42 45 48 52 57 62 65 69 71 75 79 81 79 74 70 59 49 40 31 22 11 2 9 22 30
49 47 43 42 42 37 38 36 32 35 36 37 39 37 36 35 33 32 32 34 35 37 41 43 43 47 52 58 61 64 67 70 73 77 77 76 73 69 62 50 40 32 22 10 1 9 18
48 47 47 47 46 40 39 39 41 35 35 37 38 38 38 37 35 32 31 33 33 37 39 40 41 43 47 52 56 59 61 64 68 70 72 74 75 72 70 65 53 43 33 20 12 4 10
56 53 49 50 50 50 48 44 42 44 40 37 38 39 40 38 34 32 32 31 33 35 36 37 40 41 43 48 51 54 57 59 62 63 66 67 71 73 71 70 65 56 44 32 20 11 8
56 56 53 53 53 52 49 47 44 43 46 44 41 39 40 40 39 37 34 31 32 34 36 36 38 40 40 42 47 49 52 55 57 58 57 62 64 67 69 68 67 67 60 47 33 17 12
60 60 59 56 55 56 55 56 56 52 48 48 47 46 40 41 41 40 38 36 35 35 35 35 37 38 38 39 41 44 46 50 52 53 53 54 58 61 64 65 66 64 61 58 46 32 20
64 64 65 64 61 59 59 60 60 54 53 51 51 48 48 42 42 40 40 39 35 35 36 36 37 39 37 36 38 39 41 44 47 47 47 48 50 53 55 58 59 58 59 58 55 50 40
69 70 70 65 63 64 61 60 59 57 56 53 54 52 50 50 47 42 41 38 36 36 37 39 38 38 38 35 34 35 38 39 40 43 42 43 45 46 47 48 50 52 51 55 55 54 50
74 74 73 73 72 66 66 65 61 60 58 55 51 55 54 52 50 51 45 42 38 37 37 39 38 37 37 37 35 32 33 36 36 35 39 39 40 41 41 42 42 44 44 45 46 47 47
85 79 78 77 76 72 71 72 70 71 64 61 57 56 57 56 52 49 51 46 43 40 40 38 39 37 39 37 35 30 31 32 32 33 33 34 37 37 35 35 37 37 38 37 38 39 38
87 85 85 85 81 82 78 79 78 78 76 69 65 60 57 54 56 52 51 53 51 47 43 41 41 37 36 35 34 34 31 31 31 31 31 31 31 34 32 31 30 33 33 33 34 34 31
80 88 90 88 88 89 87 86 85 85 79 78 73 72 64 61 56 57 53 52 53 50 46 43 42 39 37 35 36 37 34 31 32 30 30 30 28 28 28 26 27 27 28 27 29 31 29
80 85 84 89 95 94 93 91 89 87 86 83 82 79 75 65 65 60 60 55 50 50 51 45 43 43 38 36 37 37 35 37 34 31 30 30 29 28 25 27 23 25 26 25 26 26 25
82 83 86 85 84 90 98 99 95 91 88 85 85 84 81 74 71 70 65 60 58 52 51 51 44 44 43 39 38 37 38 38 39 34 33 32 30 31 30 27 28 27 26 25 25 24 23
88 87 85 89 92 94 91 90 98 98 95 93 91 88 85 79 79 77 74 70 64 60 55 53 51 46 44 43 39 40 39 39 40 41 36 37 34 33 34 31 32 33 30 28 26 25 26
92 92 91 89 94 92 93 94 90 88 93 97 100 96 92 86 78 84 82 77 71 68 61 57 51 51 49 47 47 43 44 43 43 44 44 39 38 37 38 37 35 37 34 34 34 30 32
92 93 93 94 95 95 93 96 95 94 91 88 87 93 99 92 84 85 86 80 78 73 71 63 58 52 52 49 48 51 50 47 45 47 47 42 43 41 40 41 41 41 40 38 37 36 36
89 90 90 94 94 95 96 95 96 95 93 90 90 91 89 86 90 91 87 84 80 78 74 72 65 61 58 54 54 56 54 55 50 49 51 49 48 48 46 46 48 48 46 41 39 41 43
83 88 91 90 92 95 97 98 98 96 94 96 90 90 91 90 84 89 92 91 87 82 81 79 75 68 65 64 59 60 60 55 56 57 54 56 56 53 53 52 52 53 50 47 46 48 48
Wind_Direction
316 315 325 337 339 337 323 317 299 289 296 304 318 325 334 336 333 332 332 333 334 335 338 338 340 342 344 347 350 349 343 338 320 299 280 267 258 252 246 241 240 237 237 234 233 233 234
310 314 316 316 331 328 322 315 305 299 293 300 316 323 334 334 335 333 335 336 337 338 339 341 346 348 350 355 359 360 355 353 342 329 307 277 261 256 251 243 238 235 234 232 229 230 230
306 305 310 312 311 319 320 305 303 303 293 302 315 320 329 331 335 332 332 336 338 340 341 344 350 354 354 359 4 6 3 3 357 347 334 309 276 256 249 244 239 234 233 230 228 226 226
295 300 317 300 304 305 315 308 307 301 294 299 306 316 325 327 330 330 329 334 340 343 344 346 353 357 359 2 7 10 8 7 4 358 352 329 302 279 254 246 241 235 230 229 226 224 223
283 289 301 292 296 297 300 305 303 301 294 294 302 312 320 324 326 326 328 334 341 346 346 348 354 358 0 4 8 13 13 11 11 4 0 354 336 310 277 250 241 235 229 225 224 223 221
273 287 285 290 297 296 294 299 299 304 296 298 304 310 316 321 322 322 324 332 340 347 349 349 354 358 2 6 8 12 16 16 14 11 7 10 359 348 326 267 238 231 224 221 220 220 219
271 277 278 281 301 297 289 290 296 296 302 300 302 307 309 314 319 322 325 330 339 346 351 351 353 358 1 6 10 11 15 19 17 17 11 18 20 15 351 330 247 223 225 220 221 220 218
269 273 277 280 294 294 292 285 286 290 292 299 301 302 305 313 316 319 324 329 338 345 351 352 354 356 1 6 10 13 14 18 20 21 21 20 31 29 20 -0 312 231 220 221 220 216 216
272 271 275 279 278 288 289 287 285 284 286 292 299 295 302 308 313 317 320 329 337 341 349 353 353 355 -0 5 9 11 15 16 19 22 26 26 27 37 38 28 10 287 226 221 219 220 215
269 275 269 270 273 281 279 285 291 290 287 285 288 293 297 302 304 310 317 324 334 338 347 350 353 355 358 3 7 11 14 16 18 22 25 29 30 33 38 43 41 30 315 235 219 215 217
272 272 269 268 267 279 275 277 285 292 292 291 287 287 292 298 299 304 310 321 327 334 343 347 352 356 357 360 3 8 12 16 17 19 24 29 33 34 37 38 43 45 42 314 234 216 214
263 266 262 263 272 270 272 278 280 284 288 291 293 287 289 293 296 301 307 315 322 329 338 346 349 352 356 358 1 4 8 13 16 19 21 27 32 34 36 39 42 42 41 42 128 207 218
255 259 266 265 268 270 274 279 277 281 284 287 290 293 294 293 294 299 303 311 319 324 334 340 348 350 353 356 360 1 5 9 13 18 21 23 28 34 39 38 39 41 41 44 64 114 194
251 252 258 262 267 270 277 274 273 275 276 284 285 288 291 293 294 294 297 305 313 321 328 336 341 347 348 352 356 359 1 5 9 14 18 23 26 28 33 38 39 41 43 43 51 88 124
248 249 250 255 263 266 265 269 276 275 276 278 281 283 285 289 291 293 290 296 306 314 320 328 336 342 346 346 352 355 359 1 5 9 14 18 22 25 27 30 36 41 41 41 44 55 97
245 250 251 254 257 259 262 266 272 271 271 271 274 276 279 279 284 287 288 290 295 302 308 317 325 333 339 343 344 351 356 358 -0 3 9 14 17 20 24 27 29 38 42 44 46 46 61
249 253 257 257 258 254 263 266 265 266 269 266 266 271 272 276 277 279 286 288 292 293 299 306 317 322 329 337 338 345 350 354 356 359 4 9 12 15 18 22 27 30 37 41 47 53 58
252 253 255 256 256 256 255 260 264 265 265 268 264 264 269 270 272 274 276 281 287 287 289 298 307 314 320 325 333 334 341 345 352 353 358 3 6 10 13 19 22 27 29 32 38 44 49
255 256 258 258 257 255 253 256 259 262 263 266 268 264 264 266 270 271 274 275 278 284 281 293 300 305 311 316 323 328 329 336 342 349 351 355 0 3 7 11 17 19 24 26 33 37 42
256 256 256 257 257 257 254 253 256 258 258 261 264 268 264 263 266 269 271 271 273 279 284 289 294 298 304 308 314 318 323 325 331 337 342 347 351 355 359 6 9 11 12 18 25 31 37
255 254 258 258 259 257 255 255 258 259 259 260 259 262 264 266 265 266 268 270 271 272 277 282 286 293 297 303 308 308 313 315 318 324 329 334 341 345 350 356 2 4 4 6 11 15 22
261 257 255 256 256 255 257 259 257 256 259 259 259 259 256 256 261 264 266 270 273 271 270 276 279 281 290 294 297 303 304 307 304 310 316 319 328 335 338 344 347 352 358 2 1 359 3
261 259 259 256 255 256 256 257 257 258 259 259 257 257 258 256 257 259 262 263 264 274 272 267 271 276 281 284 288 295 296 298 297 298 303 306 311 317 325 325 329 337 340 341 340 347 344
260 260 258 255 257 258 256 256 257 256 256 255 256 258 257 254 258 258 257 260 264 265 271 271 267 270 275 275 279 284 290 288 288 292 294 293 296 304 307 308 311 315 324 331 328 326 327
255 255 258 258 254 256 258 257 255 255 256 256 255 256 255 254 256 260 258 257 256 258 263 270 266 265 269 273 273 276 284 287 280 283 286 290 288 288 294 295 296 301 306 312 311 309 313
252 252 253 256 256 255 254 256 259 256 256 258 256 256 255 252 255 255 259 258 257 258 258 259 265 263 270 268 271 272 275 281 281 273 280 284 287 290 284 285 286 289 295 298 300 303 300
253 253 251 253 253 252 254 253 253 256 259 259 257 258 256 252 253 254 254 256 255 255 254 254 257 259 263 266 266 267 269 272 276 276 273 277 280 284 285 285 283 288 287 286 294 296 292
253 253 251 250 250 250 250 254 254 254 256 257 258 260 258 256 249 249 253 254 254 255 255 254 254 255 257 259 264 268 271 270 267 271 270 273 275 280 281 279 278 284 287 285 287 288 290
253 252 251 250 248 248 248 251 252 252 253 256 256 258 260 256 255 250 247 251 252 253 254 254 256 254 256 258 258 262 264 269 269 269 269 269 271 275 278 278 277 278 281 285 282 285 288